| time (UTC) | temp F | wind direction | speed knots | gust knots | rain 1hr in | rain 24hr in | rain mn in | humidity % | barometer mb |
| 20260506103033 | 59 | 131 | 1.7 | 7.0 | 0.00 | 0.00 | 0.00 | 76 | 1011.8 |
| 20260506102531 | 59 | 1 | 4.3 | 6.1 | 0.00 | 0.00 | 0.00 | 76 | 1011.7 |
| 20260506102028 | 59 | 87 | 1.7 | 2.6 | 0.00 | 0.00 | 0.00 | 76 | 1011.8 |
| 20260506101525 | 59 | 92 | 3.5 | 7.8 | 0.00 | 0.00 | 0.00 | 76 | 1011.4 |
| 20260506101022 | 59 | 223 | 3.5 | 6.1 | 0.00 | 0.00 | 0.00 | 76 | 1011.5 |
| 20260506100520 | 59 | 33 | 1.7 | 6.1 | 0.00 | 0.00 | 0.00 | 76 | 1011.3 |
| 20260506100018 | 59 | 6 | 6.1 | 7.8 | 0.00 | 0.00 | 0.00 | 76 | 1011.4 |
| 20260506095517 | 59 | 313 | 2.6 | 6.1 | 0.00 | 0.00 | 0.00 | 76 | 1011.4 |
| 20260506095012 | 59 | 279 | 2.6 | 2.6 | 0.00 | 0.00 | 0.00 | 76 | 1011.3 |
| 20260506094510 | 59 | 117 | 3.5 | 5.2 | 0.00 | 0.00 | 0.00 | 76 | 1011.3 |
| 20260506094008 | 59 | 37 | 1.7 | 2.6 | 0.00 | 0.00 | 0.00 | 76 | 1011.4 |
| 20260506093506 | 59 | 347 | 2.6 | 6.1 | 0.00 | 0.00 | 0.00 | 76 | 1011.5 |
| 20260506093004 | 59 | 345 | 3.5 | 7.0 | 0.00 | 0.00 | 0.00 | 76 | 1011.4 |
| 20260506092501 | 59 | 48 | 3.5 | 7.0 | 0.00 | 0.00 | 0.00 | 76 | 1011.2 |
| 20260506091957 | 59 | 210 | 1.7 | 5.2 | 0.00 | 0.00 | 0.00 | 76 | 1011.3 |
| 20260506091456 | 59 | 51 | 3.5 | 5.2 | 0.00 | 0.00 | 0.00 | 76 | 1011.1 |
| 20260506090953 | 59 | 297 | 5.2 | 7.0 | 0.00 | 0.00 | 0.00 | 76 | 1011.1 |
| 20260506090451 | 59 | 7 | 4.3 | 6.1 | 0.00 | 0.00 | 0.00 | 76 | 1011.1 |
| 20260506085946 | 59 | 23 | 3.5 | 5.2 | 0.00 | 0.00 | 0.00 | 77 | 1010.9 |
| 20260506085444 | 60 | 354 | 3.5 | 7.0 | 0.00 | 0.00 | 0.00 | 76 | 1010.9 |
| 20260506084940 | 60 | 352 | 2.6 | 5.2 | 0.00 | 0.00 | 0.00 | 76 | 1010.7 |
| 20260506084437 | 60 | 24 | 3.5 | 5.2 | 0.00 | 0.00 | 0.00 | 76 | 1010.8 |
| 20260506083933 | 60 | 189 | 0.9 | 3.5 | 0.00 | 0.00 | 0.00 | 77 | 1010.7 |
| 20260506083430 | 60 | 341 | 3.5 | 5.2 | 0.00 | 0.00 | 0.00 | 76 | 1010.6 |
| 20260506082928 | 60 | 215 | 2.6 | 3.5 | 0.00 | 0.00 | 0.00 | 77 | 1010.6 |
| 20260506082425 | 60 | 83 | 2.6 | 5.2 | 0.00 | 0.00 | 0.00 | 77 | 1010.7 |
| 20260506081920 | 60 | 213 | 1.7 | 3.5 | 0.00 | 0.00 | 0.00 | 77 | 1010.6 |
| 20260506081419 | 60 | 209 | 1.7 | 5.2 | 0.00 | 0.00 | 0.00 | 76 | 1010.5 |
| 20260506080916 | 61 | 113 | 1.7 | 3.5 | 0.00 | 0.00 | 0.00 | 76 | 1010.6 |
| 20260506080412 | 61 | 116 | 0.9 | 3.5 | 0.00 | 0.00 | 0.00 | 76 | 1010.9 |
| 20260506073356 | 61 | 79 | 2.6 | 7.0 | 0.00 | 0.00 | 0.00 | 77 | 1010.7 |
| 20260506072853 | 61 | 8 | 3.5 | 6.1 | 0.00 | 0.00 | 0.00 | 77 | 1011.0 |
| 20260506072351 | 62 | 161 | 4.3 | 6.1 | 0.00 | 0.00 | 0.00 | 77 | 1010.9 |
| 20260506071848 | 62 | 252 | 2.6 | 7.0 | 0.00 | 0.00 | 0.00 | 77 | 1010.9 |
| 20260506071346 | 62 | 55 | 0.0 | 2.6 | 0.00 | 0.00 | 0.00 | 78 | 1010.7 |
| 20260506070843 | 62 | 134 | 1.7 | 5.2 | 0.00 | 0.00 | 0.00 | 78 | 1010.8 |
| 20260506070340 | 62 | 300 | 2.6 | 3.5 | 0.00 | 0.00 | 0.00 | 78 | 1010.7 |
| 20260506062317 | 64 | 143 | 1.7 | 7.8 | 0.00 | 0.00 | 0.00 | 79 | 1010.4 |
| 20260506061813 | 64 | 132 | 1.7 | 3.5 | 0.00 | 0.00 | 0.00 | 79 | 1010.4 |
| 20260506061310 | 64 | 266 | 1.7 | 2.6 | 0.00 | 0.00 | 0.00 | 78 | 1010.6 |
| 20260506060808 | 64 | 127 | 0.9 | 3.5 | 0.00 | 0.00 | 0.00 | 79 | 1010.7 |
| 20260506060306 | 64 | 53 | 4.3 | 6.1 | 0.00 | 0.00 | 0.00 | 79 | 1010.6 |
| 20260506051237 | 68 | 42 | 3.5 | 11.3 | 0.00 | 0.00 | 0.00 | 77 | 1010.1 |
| 20260506050735 | 69 | 80 | 2.6 | 6.1 | 0.00 | 0.00 | 0.00 | 77 | 1010.2 |
| 20260506050232 | 69 | 331 | 3.5 | 8.7 | 0.00 | 0.00 | 0.00 | 77 | 1010.0 |
| 20260506044723 | 70 | 226 | 1.7 | 7.0 | 0.00 | 0.00 | 0.00 | 77 | 1009.8 |
| 20260506044220 | 70 | 34 | 4.3 | 5.2 | 0.00 | 0.00 | 0.00 | 77 | 1009.8 |
| 20260506043718 | 70 | 313 | 3.5 | 5.2 | 0.00 | 0.00 | 0.00 | 77 | 1009.8 |
| 20260506043215 | 70 | 316 | 3.5 | 6.1 | 0.00 | 0.00 | 0.00 | 77 | 1009.5 |
| 20260506042714 | 71 | 112 | 5.2 | 9.6 | 0.00 | 0.00 | 0.00 | 76 | 1009.6 |
| 20260506042212 | 71 | 15 | 3.5 | 6.1 | 0.00 | 0.00 | 0.00 | 76 | 1009.7 |
| 20260506041710 | 71 | 136 | 3.5 | 7.0 | 0.00 | 0.00 | 0.00 | 76 | 1009.7 |
| 20260506041207 | 72 | 141 | 3.5 | 7.0 | 0.00 | 0.00 | 0.00 | 76 | 1009.4 |
| 20260506040704 | 72 | 342 | 3.5 | 7.8 | 0.00 | 0.00 | 0.00 | 76 | 1009.4 |
| 20260506040201 | 72 | 184 | 4.3 | 6.1 | 0.00 | 0.00 | 0.00 | 76 | 1009.5 |
| 20260506035658 | 73 | 166 | 1.7 | 3.5 | 0.00 | 0.00 | 0.00 | 77 | 1009.4 |
| 20260506035155 | 73 | 208 | 0.9 | 3.5 | 0.00 | 0.00 | 0.00 | 76 | 1009.3 |
| 20260506034651 | 73 | 283 | 1.7 | 2.6 | 0.00 | 0.00 | 0.00 | 76 | 1009.0 |
| 20260506034149 | 74 | 154 | 0.0 | 9.6 | 0.00 | 0.00 | 0.00 | 76 | 1009.0 |
| 20260506033646 | 74 | 10 | 4.3 | 8.7 | 0.00 | 0.00 | 0.00 | 75 | 1009.1 |
| 20260506033143 | 75 | 337 | 6.1 | 9.6 | 0.00 | 0.00 | 0.00 | 75 | 1009.2 |
| 20260506032640 | 75 | 99 | 1.7 | 7.8 | 0.00 | 0.00 | 0.00 | 74 | 1009.2 |
| 20260506032137 | 75 | 293 | 0.9 | 7.8 | 0.00 | 0.00 | 0.00 | 74 | 1009.0 |
| 20260506031634 | 75 | 41 | 3.5 | 7.8 | 0.00 | 0.00 | 0.00 | 74 | 1008.8 |
| 20260506031131 | 76 | 328 | 3.5 | 7.8 | 0.00 | 0.00 | 0.00 | 74 | 1008.8 |
| 20260506030629 | 76 | 89 | 1.7 | 7.0 | 0.00 | 0.00 | 0.00 | 74 | 1008.5 |
| 20260506030126 | 76 | 249 | 2.6 | 3.5 | 0.00 | 0.00 | 0.00 | 74 | 1008.5 |
| 20260506025623 | 77 | 139 | 0.9 | 5.2 | 0.00 | 0.00 | 0.00 | 74 | 1008.3 |
| 20260506025119 | 77 | 319 | 2.6 | 3.5 | 0.00 | 0.00 | 0.00 | 74 | 1008.0 |
| 20260506024617 | 79 | 221 | 1.7 | 1.7 | 0.00 | 0.00 | 0.00 | 81 | 1007.9 |
| 20260506024112 | 79 | 183 | 0.0 | 0.9 | 0.00 | 0.00 | 0.00 | 81 | 1007.5 |
| 20260506023609 | 79 | 193 | 0.0 | 1.7 | 0.00 | 0.00 | 0.00 | 81 | 1007.6 |
| 20260506023106 | 79 | 196 | 0.0 | 0.9 | 0.00 | 0.00 | 0.00 | 80 | 1007.3 |
| 20260506022604 | 79 | 191 | 0.0 | 0.0 | 0.00 | 0.00 | 0.00 | 80 | 1007.4 |
| 20260506022101 | 79 | 191 | 0.0 | 0.9 | 0.00 | 0.00 | 0.00 | 80 | 1007.4 |
| 20260506021559 | 79 | 217 | 0.0 | 0.9 | 0.00 | 0.00 | 0.00 | 80 | 1007.2 |
| 20260506021055 | 79 | 193 | 0.0 | 0.9 | 0.00 | 0.00 | 0.00 | 79 | 1006.9 |
| 20260506020553 | 79 | 194 | 0.9 | 1.7 | 0.00 | 0.00 | 0.00 | 79 | 1007.2 |
| 20260506020050 | 79 | 183 | 0.0 | 0.9 | 0.00 | 0.00 | 0.00 | 79 | 1007.3 |
| 20260506015548 | 79 | 202 | 0.0 | 0.0 | 0.00 | 0.00 | 0.00 | 79 | 1007.2 |
| 20260506015044 | 79 | 193 | 0.0 | 0.0 | 0.00 | 0.00 | 0.00 | 79 | 1007.0 |
| 20260506014542 | 79 | 192 | 0.0 | 0.9 | 0.00 | 0.00 | 0.00 | 79 | 1006.9 |
| 20260506014037 | 79 | 197 | 0.9 | 0.9 | 0.00 | 0.00 | 0.00 | 79 | 1006.9 |
| 20260506013536 | 79 | 209 | 0.0 | 0.9 | 0.00 | 0.00 | 0.00 | 79 | 1006.8 |
| 20260506013032 | 79 | 214 | 0.9 | 1.7 | 0.00 | 0.00 | 0.00 | 79 | 1006.8 |
| 20260506012528 | 80 | 191 | 0.9 | 1.7 | 0.00 | 0.00 | 0.00 | 79 | 1006.4 |
| 20260506012025 | 80 | 186 | 1.7 | 5.2 | 0.00 | 0.00 | 0.00 | 78 | 1006.1 |
| 20260506011523 | 80 | 181 | 0.9 | 2.6 | 0.00 | 0.00 | 0.00 | 78 | 1006.0 |
| 20260506011019 | 80 | 181 | 0.9 | 2.6 | 0.00 | 0.00 | 0.00 | 77 | 1006.3 |
| 20260506010513 | 80 | 191 | 3.5 | 3.5 | 0.00 | 0.00 | 0.00 | 77 | 1006.5 |
| 20260506010009 | 80 | 195 | 1.7 | 5.2 | 0.00 | 0.00 | 0.00 | 77 | 1006.4 |
| 20260506005506 | 81 | 194 | 2.6 | 5.2 | 0.00 | 0.00 | 0.00 | 76 | 1006.5 |
| 20260506005001 | 81 | 198 | 1.7 | 5.2 | 0.00 | 0.00 | 0.00 | 76 | 1006.6 |
| 20260506004500 | 81 | 219 | 2.6 | 5.2 | 0.00 | 0.00 | 0.00 | 76 | 1006.2 |
| 20260506003955 | 81 | 162 | 2.6 | 3.5 | 0.00 | 0.00 | 0.00 | 76 | 1006.4 |
| 20260506003452 | 81 | 203 | 0.9 | 7.0 | 0.00 | 0.00 | 0.00 | 75 | 1006.4 |
| 20260506002948 | 81 | 201 | 2.6 | 5.2 | 0.00 | 0.00 | 0.00 | 75 | 1006.4 |
| 20260506002445 | 82 | 196 | 2.6 | 5.2 | 0.00 | 0.00 | 0.00 | 74 | 1005.9 |
| 20260506001940 | 82 | 199 | 3.5 | 6.1 | 0.00 | 0.00 | 0.00 | 74 | 1006.1 |
| 20260506001437 | 82 | 105 | 4.3 | 8.7 | 0.00 | 0.00 | 0.00 | 74 | 1006.1 |
| 20260506000934 | 82 | 257 | 2.6 | 7.0 | 0.00 | 0.00 | 0.00 | 74 | 1006.0 |
| 20260506000432 | 82 | 183 | 3.5 | 6.1 | 0.00 | 0.00 | 0.00 | 74 | 1005.8 |
| 20260505235929 | 82 | 142 | 4.3 | 7.8 | 0.00 | 0.00 | 0.00 | 74 | 1005.8 |
| 20260505235427 | 82 | 220 | 2.6 | 5.2 | 0.00 | 0.00 | 0.00 | 73 | 1006.0 |
| 20260505234924 | 83 | 200 | 3.5 | 7.8 | 0.00 | 0.00 | 0.00 | 73 | 1006.1 |
| 20260505234421 | 83 | 252 | 4.3 | 8.7 | 0.00 | 0.00 | 0.00 | 73 | 1006.1 |
| 20260505233917 | 83 | 210 | 4.3 | 9.6 | 0.00 | 0.00 | 0.00 | 72 | 1005.9 |
| 20260505233415 | 84 | 165 | 4.3 | 6.1 | 0.00 | 0.00 | 0.00 | 72 | 1005.9 |
| 20260505232912 | 84 | 217 | 6.1 | 8.7 | 0.00 | 0.00 | 0.00 | 71 | 1005.8 |
| 20260505232410 | 84 | 232 | 5.2 | 7.0 | 0.00 | 0.00 | 0.00 | 71 | 1006.0 |
| 20260505231907 | 84 | 135 | 3.5 | 8.7 | 0.00 | 0.00 | 0.00 | 71 | 1006.0 |
| 20260505231405 | 84 | 224 | 3.5 | 7.8 | 0.00 | 0.00 | 0.00 | 71 | 1006.0 |
| 20260505230903 | 85 | 180 | 5.2 | 9.6 | 0.00 | 0.00 | 0.00 | 70 | 1005.6 |
| 20260505230400 | 86 | 233 | 6.1 | 7.8 | 0.00 | 0.00 | 0.00 | 68 | 1005.6 |
| 20260505225856 | 86 | 225 | 2.6 | 6.1 | 0.00 | 0.00 | 0.00 | 68 | 1005.7 |
| 20260505225354 | 86 | 212 | 3.5 | 7.8 | 0.00 | 0.00 | 0.00 | 68 | 1005.8 |
| 20260505224848 | 86 | 219 | 4.3 | 7.8 | 0.00 | 0.00 | 0.00 | 67 | 1005.7 |
| 20260505224346 | 87 | 204 | 6.1 | 9.6 | 0.00 | 0.00 | 0.00 | 66 | 1005.6 |
| 20260505223843 | 87 | 168 | 3.5 | 7.0 | 0.00 | 0.00 | 0.00 | 66 | 1005.6 |
| 20260505223340 | 86 | 164 | 5.2 | 7.8 | 0.00 | 0.00 | 0.00 | 67 | 1005.5 |
| 20260505222836 | 87 | 211 | 5.2 | 8.7 | 0.00 | 0.00 | 0.00 | 67 | 1005.5 |
| 20260505222332 | 87 | 172 | 2.6 | 5.2 | 0.00 | 0.00 | 0.00 | 66 | 1005.4 |
| 20260505221830 | 88 | 220 | 5.2 | 7.0 | 0.00 | 0.00 | 0.00 | 64 | 1005.4 |
| 20260505221326 | 87 | 225 | 3.5 | 6.1 | 0.00 | 0.00 | 0.00 | 66 | 1005.5 |
| 20260505220823 | 87 | 142 | 3.5 | 7.0 | 0.00 | 0.00 | 0.00 | 65 | 1005.6 |
| 20260505220320 | 88 | 197 | 2.6 | 8.7 | 0.00 | 0.00 | 0.00 | 65 | 1005.5 |
| 20260505215818 | 87 | 235 | 4.3 | 7.0 | 0.00 | 0.00 | 0.00 | 66 | 1005.4 |
| 20260505215316 | 88 | 204 | 3.5 | 7.8 | 0.00 | 0.00 | 0.00 | 64 | 1005.6 |
| 20260505214814 | 86 | 224 | 1.7 | 8.7 | 0.00 | 0.00 | 0.00 | 66 | 1005.8 |
| 20260505214311 | 87 | 161 | 3.5 | 7.8 | 0.00 | 0.00 | 0.00 | 66 | 1005.6 |
| 20260505213808 | 87 | 198 | 3.5 | 9.6 | 0.00 | 0.00 | 0.00 | 65 | 1005.9 |
| 20260505213306 | 87 | 206 | 3.5 | 7.0 | 0.00 | 0.00 | 0.00 | 66 | 1005.7 |
| 20260505212801 | 87 | 212 | 3.5 | 7.0 | 0.00 | 0.00 | 0.00 | 66 | 1005.8 |
| 20260505212259 | 87 | 158 | 1.7 | 7.0 | 0.00 | 0.00 | 0.00 | 66 | 1005.8 |
| 20260505211755 | 88 | 190 | 3.5 | 7.0 | 0.00 | 0.00 | 0.00 | 65 | 1006.0 |
| 20260505211253 | 87 | 192 | 3.5 | 5.2 | 0.00 | 0.00 | 0.00 | 66 | 1005.8 |
| 20260505210749 | 87 | 173 | 2.6 | 7.8 | 0.00 | 0.00 | 0.00 | 66 | 1005.9 |
| 20260505210246 | 87 | 156 | 3.5 | 7.8 | 0.00 | 0.00 | 0.00 | 65 | 1006.0 |
| 20260505205743 | 87 | 223 | 7.8 | 11.3 | 0.00 | 0.00 | 0.00 | 65 | 1006.1 |
| 20260505205242 | 88 | 180 | 2.6 | 6.1 | 0.00 | 0.00 | 0.00 | 64 | 1005.9 |
| 20260505204738 | 87 | 169 | 4.3 | 7.8 | 0.00 | 0.00 | 0.00 | 64 | 1006.2 |
| 20260505204236 | 88 | 210 | 3.5 | 8.7 | 0.00 | 0.00 | 0.00 | 64 | 1006.2 |
| 20260505203733 | 88 | 221 | 5.2 | 7.8 | 0.00 | 0.00 | 0.00 | 63 | 1006.2 |
| 20260505203230 | 87 | 350 | 7.8 | 11.3 | 0.00 | 0.00 | 0.00 | 64 | 1006.3 |
| 20260505202725 | 87 | 222 | 1.7 | 6.1 | 0.00 | 0.00 | 0.00 | 66 | 1006.3 |
| 20260505202221 | 88 | 193 | 6.1 | 8.7 | 0.00 | 0.00 | 0.00 | 65 | 1006.4 |
| 20260505201718 | 88 | 291 | 3.5 | 7.0 | 0.00 | 0.00 | 0.00 | 64 | 1006.4 |
| 20260505201216 | 87 | 197 | 5.2 | 8.7 | 0.00 | 0.00 | 0.00 | 64 | 1006.3 |
| 20260505200714 | 87 | 161 | 3.5 | 12.2 | 0.00 | 0.00 | 0.00 | 64 | 1006.3 |
| 20260505200210 | 87 | 201 | 2.6 | 6.1 | 0.00 | 0.00 | 0.00 | 65 | 1006.4 |
| 20260505195706 | 87 | 198 | 3.5 | 12.2 | 0.00 | 0.00 | 0.00 | 65 | 1006.3 |
| 20260505195204 | 87 | 165 | 7.0 | 7.8 | 0.00 | 0.00 | 0.00 | 64 | 1006.5 |
| 20260505194701 | 86 | 158 | 3.5 | 8.7 | 0.00 | 0.00 | 0.00 | 65 | 1006.6 |
| 20260505194157 | 86 | 210 | 5.2 | 11.3 | 0.00 | 0.00 | 0.00 | 65 | 1006.4 |
| 20260505193654 | 87 | 152 | 5.2 | 7.8 | 0.00 | 0.00 | 0.00 | 64 | 1006.3 |
| 20260505193151 | 85 | 209 | 7.0 | 12.2 | 0.00 | 0.00 | 0.00 | 65 | 1006.4 |
| 20260505192650 | 85 | 205 | 4.3 | 14.8 | 0.00 | 0.00 | 0.00 | 66 | 1006.5 |
| 20260505192147 | 85 | 24 | 5.2 | 9.6 | 0.00 | 0.00 | 0.00 | 66 | 1006.8 |
| 20260505191645 | 85 | 171 | 6.1 | 12.2 | 0.00 | 0.00 | 0.00 | 66 | 1006.5 |
| 20260505191143 | 85 | 182 | 5.2 | 13.9 | 0.00 | 0.00 | 0.00 | 66 | 1006.8 |
| 20260505190639 | 84 | 229 | 7.8 | 13.0 | 0.00 | 0.00 | 0.00 | 68 | 1006.8 |
| 20260505190138 | 84 | 191 | 6.1 | 11.3 | 0.00 | 0.00 | 0.00 | 67 | 1006.9 |
| 20260505185635 | 84 | 198 | 7.0 | 9.6 | 0.00 | 0.00 | 0.00 | 68 | 1006.9 |
| 20260505185131 | 83 | 165 | 4.3 | 8.7 | 0.00 | 0.00 | 0.00 | 68 | 1006.9 |
| 20260505184628 | 83 | 154 | 2.6 | 11.3 | 0.00 | 0.00 | 0.00 | 69 | 1006.9 |
| 20260505184125 | 83 | 220 | 7.8 | 13.0 | 0.00 | 0.00 | 0.00 | 68 | 1007.1 |
| 20260505183622 | 84 | 307 | 2.6 | 7.0 | 0.00 | 0.00 | 0.00 | 68 | 1007.0 |
| 20260505183119 | 83 | 205 | 6.1 | 8.7 | 0.00 | 0.00 | 0.00 | 69 | 1007.0 |
| 20260505182615 | 83 | 330 | 7.0 | 11.3 | 0.00 | 0.00 | 0.00 | 68 | 1007.0 |
| 20260505182112 | 83 | 250 | 5.2 | 8.7 | 0.00 | 0.00 | 0.00 | 69 | 1007.1 |
| 20260505181609 | 82 | 169 | 7.8 | 12.2 | 0.00 | 0.00 | 0.00 | 70 | 1006.9 |
| 20260505181106 | 82 | 206 | 3.5 | 8.7 | 0.00 | 0.00 | 0.00 | 70 | 1007.2 |
| 20260505180602 | 82 | 213 | 4.3 | 13.0 | 0.00 | 0.00 | 0.00 | 69 | 1007.1 |
| 20260505180100 | 82 | 198 | 6.1 | 11.3 | 0.00 | 0.00 | 0.00 | 70 | 1007.2 |
| 20260505175555 | 82 | 205 | 3.5 | 8.7 | 0.00 | 0.00 | 0.00 | 71 | 1007.1 |
| 20260505175052 | 82 | 205 | 4.3 | 13.0 | 0.00 | 0.00 | 0.00 | 71 | 1007.0 |
| 20260505174549 | 81 | 190 | 7.0 | 8.7 | 0.00 | 0.00 | 0.00 | 71 | 1007.0 |
| 20260505174045 | 81 | 208 | 5.2 | 9.6 | 0.00 | 0.00 | 0.00 | 71 | 1007.2 |
| 20260505173542 | 82 | 223 | 5.2 | 7.8 | 0.00 | 0.00 | 0.00 | 70 | 1007.1 |
| 20260505173039 | 81 | 199 | 6.1 | 9.6 | 0.00 | 0.00 | 0.00 | 71 | 1007.2 |
| 20260505172537 | 82 | 217 | 3.5 | 9.6 | 0.00 | 0.00 | 0.00 | 71 | 1007.1 |
| 20260505172033 | 82 | 192 | 10.4 | 13.9 | 0.00 | 0.00 | 0.00 | 69 | 1007.2 |
| 20260505171528 | 81 | 215 | 4.3 | 13.0 | 0.00 | 0.00 | 0.00 | 71 | 1007.4 |
| 20260505171025 | 81 | 104 | 2.6 | 8.7 | 0.00 | 0.00 | 0.00 | 70 | 1007.1 |
| 20260505170522 | 81 | 231 | 8.7 | 13.0 | 0.00 | 0.00 | 0.00 | 71 | 1007.1 |
| 20260505170018 | 82 | 211 | 10.4 | 13.9 | 0.00 | 0.00 | 0.00 | 70 | 1007.3 |
| 20260505165514 | 81 | 266 | 3.5 | 11.3 | 0.00 | 0.00 | 0.00 | 71 | 1007.2 |
| 20260505165009 | 80 | 180 | 4.3 | 15.6 | 0.00 | 0.00 | 0.00 | 71 | 1006.8 |
| 20260505164506 | 80 | 178 | 4.3 | 11.3 | 0.00 | 0.00 | 0.00 | 73 | 1007.0 |
| 20260505164004 | 79 | 190 | 7.0 | 11.3 | 0.00 | 0.00 | 0.00 | 72 | 1007.2 |
| 20260505163502 | 79 | 230 | 7.8 | 12.2 | 0.00 | 0.00 | 0.00 | 74 | 1007.1 |
| 20260505163002 | 80 | 199 | 7.0 | 12.2 | 0.00 | 0.00 | 0.00 | 72 | 1006.9 |
| 20260505162456 | 79 | 234 | 4.3 | 11.3 | 0.00 | 0.00 | 0.00 | 73 | 1007.1 |
| 20260505161953 | 79 | 196 | 5.2 | 13.0 | 0.00 | 0.00 | 0.00 | 74 | 1007.1 |
| 20260505161450 | 78 | 157 | 7.0 | 15.6 | 0.00 | 0.00 | 0.00 | 75 | 1007.3 |
| 20260505160947 | 79 | 315 | 7.0 | 13.9 | 0.00 | 0.00 | 0.00 | 74 | 1007.1 |
| 20260505160446 | 79 | 266 | 6.1 | 9.6 | 0.00 | 0.00 | 0.00 | 74 | 1007.0 |
| 20260505152922 | 76 | 211 | 8.7 | 13.0 | 0.00 | 0.00 | 0.00 | 78 | 1007.3 |
| 20260505152419 | 77 | 231 | 7.8 | 13.0 | 0.00 | 0.00 | 0.00 | 78 | 1007.1 |
| 20260505151913 | 76 | 148 | 7.8 | 13.9 | 0.00 | 0.00 | 0.00 | 78 | 1007.1 |
| 20260505151410 | 76 | 201 | 2.6 | 13.0 | 0.00 | 0.00 | 0.00 | 80 | 1007.1 |
| 20260505150907 | 75 | 223 | 5.2 | 11.3 | 0.00 | 0.00 | 0.00 | 80 | 1007.3 |
| 20260505150404 | 75 | 214 | 7.0 | 12.2 | 0.00 | 0.00 | 0.00 | 81 | 1007.4 |
| 20260505140334 | 73 | 146 | 1.7 | 6.1 | 0.00 | 0.00 | 0.00 | 84 | 1007.4 |
| 20260505130257 | 72 | 200 | 3.5 | 8.7 | 0.00 | 0.00 | 0.00 | 86 | 1006.8 |
| 20260505124748 | 71 | 198 | 0.9 | 6.1 | 0.00 | 0.00 | 0.00 | 87 | 1006.7 |
| 20260505124245 | 71 | 141 | 3.5 | 6.1 | 0.00 | 0.00 | 0.00 | 87 | 1006.6 |
| 20260505123740 | 71 | 213 | 3.5 | 7.8 | 0.00 | 0.00 | 0.00 | 87 | 1006.4 |
| 20260505123237 | 71 | 143 | 3.5 | 7.0 | 0.00 | 0.00 | 0.00 | 87 | 1006.2 |
| 20260505122734 | 71 | 233 | 3.5 | 7.0 | 0.00 | 0.00 | 0.00 | 87 | 1006.2 |
| 20260505122231 | 71 | 299 | 5.2 | 7.0 | 0.00 | 0.00 | 0.00 | 87 | 1006.3 |
| 20260505121727 | 71 | 121 | 3.5 | 7.0 | 0.00 | 0.00 | 0.00 | 87 | 1006.5 |
| 20260505121224 | 71 | 174 | 2.6 | 8.7 | 0.00 | 0.00 | 0.00 | 87 | 1006.4 |
| 20260505120721 | 71 | 222 | 5.2 | 12.2 | 0.00 | 0.00 | 0.00 | 87 | 1006.3 |
| 20260505120217 | 71 | 194 | 2.6 | 7.0 | 0.00 | 0.00 | 0.00 | 87 | 1006.2 |
| 20260505115715 | 71 | 246 | 3.5 | 7.0 | 0.00 | 0.00 | 0.00 | 87 | 1006.1 |
| 20260505115213 | 71 | 216 | 2.6 | 7.0 | 0.00 | 0.00 | 0.00 | 87 | 1006.3 |
| 20260505114710 | 71 | 217 | 3.5 | 7.0 | 0.00 | 0.00 | 0.00 | 87 | 1006.5 |
| 20260505114206 | 71 | 229 | 4.3 | 9.6 | 0.00 | 0.00 | 0.00 | 87 | 1006.4 |
| 20260505113703 | 71 | 205 | 1.7 | 7.0 | 0.00 | 0.00 | 0.00 | 87 | 1006.2 |
| 20260505113159 | 71 | 221 | 2.6 | 9.6 | 0.00 | 0.00 | 0.00 | 87 | 1006.3 |
| 20260505112656 | 71 | 212 | 1.7 | 7.0 | 0.00 | 0.00 | 0.00 | 87 | 1006.1 |
| 20260505112154 | 71 | 219 | 5.2 | 7.0 | 0.00 | 0.00 | 0.00 | 87 | 1006.3 |
| 20260505111653 | 71 | 207 | 4.3 | 7.0 | 0.00 | 0.00 | 0.00 | 87 | 1006.4 |
| 20260505111149 | 71 | 221 | 3.5 | 11.3 | 0.00 | 0.00 | 0.00 | 87 | 1006.1 |
| 20260505110645 | 71 | 205 | 5.2 | 12.2 | 0.00 | 0.00 | 0.00 | 87 | 1005.9 |
| 20260505110143 | 71 | 194 | 2.6 | 7.0 | 0.00 | 0.00 | 0.00 | 87 | 1005.8 |